Location: Pesaro
(43.9000°N, 12.9170°E)
Time: 13:37:39
(UTC+02:00)

ISS - Visible Passes

Search period start: 11 May 2021 00:00
Search period end: 21 May 2021 00:00
Orbit: 417 x 422 km, 51.6° (Epoch: 11 May)

Date Brightness Start Highest point End Pass type
(mag) Time Alt. Az. Time Alt. Az. Time Alt. Az.
11 May -1.4 02:04:21 24° N 02:04:21 24° N 02:06:51 10° NE visible
11 May -1.3 03:38:46 10° NW 03:41:33 23° N 03:44:22 10° ENE visible
12 May -1.0 01:18:16 18° NNE 01:18:16 18° NNE 01:19:25 10° NE visible
12 May -1.2 02:51:15 10° NW 02:53:56 22° N 02:56:38 10° ENE visible
12 May -2.5 04:28:05 10° NW 04:31:20 44° NNE 04:34:36 10° E visible
13 May -1.2 02:05:02 17° NNW 02:06:19 21° N 02:08:59 10° NE visible
13 May -1.9 03:40:42 10° NW 03:43:48 33° NNE 03:46:55 10° E visible
14 May -1.2 01:18:39 22° N 01:18:41 22° N 01:21:25 10° NE visible
14 May -1.5 02:53:17 10° NW 02:56:14 27° NNE 02:59:11 10° ENE visible
14 May -3.8 04:29:58 10° WNW 04:33:21 83° SW 04:36:44 10° SE visible
14 May -2.1 21:15:21 10° S 21:17:25 16° SE 21:19:31 10° E visible
14 May -3.7 22:50:30 10° WSW 22:53:51 76° NNW 22:55:36 26° NE visible
15 May -1.4 00:28:14 10° WNW 00:31:04 24° N 00:33:55 10° NE visible
15 May -1.3 02:05:51 10° NW 02:08:38 23° N 02:11:26 10° ENE visible
15 May -3.3 03:42:32 10° NW 03:45:55 64° NNE 03:49:15 10° ESE visible
15 May -3.9 22:03:06 10° SW 22:06:26 68° SE 22:09:48 10° ENE visible
15 May -1.7 23:40:29 10° W 23:43:29 29° NNW 23:46:28 10° NE visible
16 May -1.2 01:18:19 10° NW 01:21:01 22° N 01:23:43 10° ENE visible
16 May -2.6 02:55:09 10° NW 02:58:25 44° NNE 03:01:40 10° E visible
16 May -3.0 04:32:08 10° WNW 04:35:08 30° SW 04:38:09 10° SSE visible
16 May -3.4 21:15:53 10° SSW 21:19:04 41° SE 21:22:16 10° ENE visible
16 May -2.2 22:52:45 10° W 22:55:55 36° NNW 22:59:05 10° NE visible
17 May -1.1 00:30:42 10° NW 00:33:22 21° N 00:36:03 10° NE visible
17 May -2.0 02:07:46 10° NW 02:10:52 33° NNE 02:13:59 10° E visible
17 May -3.7 03:45:03 14° WNW 03:47:48 50° SW 03:51:05 10° SE visible
17 May -2.8 22:05:07 10° WSW 22:08:23 50° NNW 22:11:42 10° NE visible
17 May -1.2 23:43:02 10° WNW 23:45:45 22° N 23:48:29 10° NE visible
18 May -1.5 01:20:21 10° NW 01:22:57 26° N 01:22:57 26° N visible
18 May -3.5 21:17:34 10° WSW 21:20:55 75° NNW 21:24:17 10° NE visible
18 May -1.3 22:55:18 10° WNW 22:58:07 24° NNW 23:00:59 10° NE visible
19 May -1.4 00:32:54 10° NW 00:35:42 23° N 00:36:34 21° NNE visible
19 May -1.6 22:07:32 10° WNW 22:10:32 29° NNW 22:13:32 10° NE visible
19 May -1.2 23:45:22 10° NW 23:48:04 22° N 23:50:24 12° NE visible
20 May -1.3 01:22:12 10° NW 01:23:19 19° NW 01:23:19 19° NW visible
20 May -2.1 21:19:49 10° W 21:22:58 36° NNW 21:26:08 10° NE visible
20 May -1.2 22:57:46 10° NW 23:00:26 21° N 23:03:06 10° NE visible
